User: anonymous   Login
Location: Castro Valley
(37.6940°N, 122.0850°W)
Time: 08:10:32
(UTC-07:00)
Language:

PANSAT - Orbit

View from above orbital plane
View from above orbital plane
View from above satellite
View from above satellite

Ground track
Ground track

The orbit data is extracted from the following two-line orbital elements,

1 25520U 98064B   17112.92012374 +.00001776 +00000-0 +54723-4 0  9997
2 25520 028.4584 000.7725 0005382 110.6570 249.4602 15.28312227025519
Epoch (UTC): 22 April 2017 22:04:58
Eccentricity: 0.0005382
inclination: 28.4584°
perigee height: 477 km
apogee height: 484 km
right ascension of ascending node: 0.7725°
argument of perigee: 110.6570°
revolutions per day: 15.28312227
mean anomaly at epoch: 249.4602°
orbit number at epoch: 2551

The dashed part of the orbit path shows where the satellite is in the earth's shadow,  

DLR